Regional Weather Roundup
Issued by NWS

Home | Current Version | Previous Version | Text Only | Print | Product List | Glossary On
Versions: 1 2 3 4 5 6 7 8 9 10 11 12 13 14 15 16 17 18 19 20 21 22 23 24 25 26 27 28 29 30 31 32 33 34 35 36 37 38 39 40 41 42 43 44 45 46 47 48 49 50
578
ASUS43 KDMX 070706
RWRIA

WEATHER ROUNDUP FOR IOWA
NATIONAL WEATHER SERVICE DES MOINES IA
100 AM CST WED DEC 07 2016

NOTE: "FAIR" INDICATES FEW OR NO CLOUDS BELOW 12,000 FEET WITH NO
SIGNIFICANT WEATHER AND/OR OBSTRUCTIONS TO VISIBILITY.

* - THESE STATIONS ARE NOT NWS STATIONS...THUS NOT UNDER NWS
QUALITY CONTROL.  THEY ALSO DO NOT REPORT WEATHER SUCH
AS PRECIPITATION OR FOG.

IAZ001>003-012>014-020>022-031>034-043>046-070800-
   NORTHWEST IOWA

CITY           SKY/WX    TMP DP  RH WIND       PRES   REMARKS
CARROLL *      CLEAR     18  10  73 W23G31    30.10R WCI   0
CHEROKEE *     CLEAR     14   9  81 W13G24    30.11R WCI   0
DENISON *      PTCLDY    16   9  73 W15G21    30.11R WCI   1
LE MARS *      MOCLDY    14   9  79 W13G20    30.13R WCI   0
ORANGE CITY *  CLEAR     12   7  79 W25G32    30.07R WCI  -8
SHELDON *      PTCLDY    12   7  79 W20G26    30.04S WCI  -6
SIOUX CITY     CLEAR     17   7  64 NW17      30.16R WCI   1
SPENCER        CLEAR     13   7  77 W25G33    30.05R WCI  -7
STORM LAKE *   PTCLDY    14   9  79 W26       30.05S WCI  -6
$$

IAZ055>058-069>071-079>083-090>094-070800-
   SOUTHWEST IOWA

CITY           SKY/WX    TMP DP  RH WIND       PRES   REMARKS
ATLANTIC *     PTCLDY    21  12  68 NW18      30.14R WCI   6
AUDUBON *      PTCLDY    18  10  73 W5        30.11R WCI  11
CLARINDA *     CLOUDY    25  14  63 NW7G14    30.18R WCI  17
COUNCIL BLFS * PTCLDY    21  12  68 NW10G16   30.15R WCI  10
CRESTON *      PTCLDY    21  12  68 W13       30.13R WCI   9
HARLAN  *      PTCLDY    19  10  68 NW20G28   30.17R WCI   4
LAMONI         CLOUDY    24  14  65 W13       30.13R WCI  12
RED OAK *      CLOUDY    23  12  63 NW12      30.17R WCI  12
SHENANDOAH *   CLOUDY    25  12  58 NW8G15    30.19R WCI  16
$$

IAZ047>049-059>061-072>074-084-070800-
   CENTRAL IOWA

CITY           SKY/WX    TMP DP  RH WIND       PRES   REMARKS
AMES           CLEAR     19  12  74 W13G23    30.09R WCI   6
ANKENY *       CLEAR     21  12  68 W13G20    30.12R WCI   9
BOONE *        CLEAR     18  10  73 W20G26    30.07R WCI   1
CHARITON *       N/A     23  14  68 W12       30.10S WCI  12
DES MOINES     PTCLDY    23  11  60 NW16      30.10S WCI  10
GRINNELL*      PTCLDY    22  14  72 W13       30.08R WCI  10
KNOXVILLE *    MOCLDY    25  12  58 W17G24    30.08S WCI  11
MARSHALLTOWN   PTCLDY    19  12  74 W15G23    30.06R WCI   5
NEWTON *       CLEAR     21  12  68 W16G22    30.08R WCI   7
PELLA *        PTCLDY    25  13  62 NW14      30.11R WCI  13
PERRY *          N/A     20  14  78 W14G23    30.11R WCI   7
$$

IAZ004>006-015-016-023>025-035-036-070800-
   NORTH CENTRAL IOWA

CITY           SKY/WX    TMP DP  RH WIND       PRES   REMARKS
ALGONA *       PTCLDY    16  10  79 W22       30.02S WCI  -2
CLARION *      PTCLDY    16  10  79 W22G29    30.04R WCI  -2
ESTHERVILLE    CLEAR     12   7  80 W22G29    30.01R WCI  -7
FORT DODGE *   CLEAR     16   7  67 W12G20    30.07R WCI   3
MASON CITY     CLEAR     15   8  73 W24G33    30.00R WCI  -4
FOREST CITY *    N/A     14  10  85 W16G26    29.99R WCI  -2
WEBSTER CITY * PTCLDY    18  12  79 W18G26    30.04S WCI   2
IOWA FALLS *     N/A     19  13  78 W23G33    30.04R WCI   2
$$

IAZ007>011-017>019-026>030-037>042-050>054-066-070800-
   NORTHEAST IOWA

CITY           SKY/WX    TMP DP  RH WIND       PRES   REMARKS
CEDAR RAPIDS   PTCLDY    21  16  81 W16G22    30.04R WCI   7
CHARLES CITY * CLOUDY    18  10  73 W16G22    29.99R WCI   3
CLINTON *      PTCLDY    25  20  81 W14       30.04R WCI  13
DECORAH *      FLURRIES  18  12  79 W13G21    29.94R WCI   4
DUBUQUE        FLURRIES  20  14  77 W17       29.99R WCI   5
MONTICELLO *   CLEAR     23  14  68 W10G18    30.02S WCI  12
OELWEIN *      MOCLDY    18  14  86 W21       30.00R WCI   1
WATERLOO       CLEAR     19  12  74 W15       30.02R WCI   5
$$

IAZ064-065-067-068-078-070800-
   EAST CENTRAL IOWA

CITY           SKY/WX    TMP DP  RH WIND       PRES   REMARKS
DAVENPORT      PTCLDY    26  18  71 W16       30.05R WCI  14
IOWA CITY      CLOUDY    25  16  68 W14       30.09R WCI  13
MUSCATINE *    MOCLDY    28  16  59 W17       30.09R WCI  16
QUAD CITIES    PTCLDY    28  17  63 W16       30.06R WCI  16
$$

IAZ062-063-075>077-085>089-095>099-070800-
   SOUTHEAST IOWA

CITY           SKY/WX    TMP DP  RH WIND       PRES   REMARKS
BURLINGTON     PTCLDY    28  17  63 W10       30.10R WCI  19
FAIRFIELD *    CLOUDY    27  14  59 W10G16    30.09S WCI  17
FORT MADISON * PTCLDY    28  18  64 W14G20    30.11R WCI  17
KEOKUK *       PTCLDY    30  16  55 W13       30.11R WCI  20
OSKALOOSA *      N/A     24  17  72 W13       30.10R WCI  13
CENTERVILLE *    N/A     27  16  63 W12       30.12S WCI  16
OTTUMWA        CLOUDY    26  12  55 W14       30.10R WCI  14
WASHINGTON *   PTCLDY    27  18  69 W12       30.10R WCI  16
$$

ABBREVIATIONS USED IN REMARKS
   TC - TEMPERATURES IN CELSIUS
  WCI - WIND CHILL INDEX
   HX - HEAT INDEX
  VSB - VISIBILITY
$$





USA.gov is the U.S. government's official web portal to all federal, state and local government web resources and services.